Regional Weather Roundup
Issued by NWS Grand Forks, ND

Home | Current Version | Previous Version | Graphics & Text | Print | Product List | Glossary On
Versions: 1 2 3 4 5 6 7 8 9 10 11 12 13 14 15 16 17 18 19 20 21 22 23 24 25 26 27 28 29 30 31 32 33 34 35 36 37 38 39 40 41 42 43 44 45 46 47 48 49 50
000
ASUS43 KFGF 022010
RWRFGF
PRAIRIE TO PINES  WEATHER ROUNDUP
NATIONAL WEATHER SERVICE EASTERN NORTH DAKOTA/GRAND FORKS ND
300 PM CDT THU JUL 02 2015

 **SATELLITE DATA USED TO AUGMENT SKY COVER AT AUTOMATED STATIONS**
 *****  WEATHER ACROSS EASTERN NORTH DAKOTA  *****

CITY           SKY/WX    TMP DP  RH WIND       PRES   REMARKS
GRAND FORKS    MOSUNNY   79  64  60 S14       29.91F
GRAND FRKS AFB MOSUNNY   80  65  60 SW12      29.92F
GRAND FRKS NWS   N/A     77 N/A N/A SW10        N/A
DEVILS LAKE    MOSUNNY   79  63  57 NW10      29.92F
FARGO          SUNNY     78  55  44 S13       29.96F
WAHPETON ARPT  CLEAR     73  50  43 S10       29.98F
$$

 ***** WEATHER ACROSS CENTRAL AND WESTERN NORTH DAKOTA  *****

CITY           SKY/WX    TMP DP  RH WIND       PRES   REMARKS
BISMARCK       PTSUNNY   80  63  55 NW10      29.97F HAZE
MINOT          MOSUNNY   78  61  55 NW8       29.97S HAZE
JAMESTOWN      MOSUNNY   77  65  66 S9        29.95S
MINOT AFB      MOSUNNY   82  68  63 W10       29.96S HAZE
GARRISON         N/A     76  64  66 VRB5      29.99S
WILLISTON      LGT RAIN  79  61  53 N8        30.03S
DICKINSON      MOSUNNY   78  61  55 NW10      30.03S HAZE
HETTINGER      MOSUNNY   76  59  55 NW13      30.06S
$$

 *****  OTHER AIRPORT OBSERVATIONS IN OUR AREA  *****

CITY           SKY/WX    TMP DP  RH WIND       PRES   REMARKS
WALHALLA       FAIR      77  66  69 MISG      29.90S
GRAFTON AIRPOR FAIR      77  66  69 SE10      29.90F
VALLEY CITY AR FAIR      75  66  73 SW10      29.96F
CANDO          MOCLDY    77  64  65 W3        29.94F
CAVALIER APRT  FAIR      77  68  73 SW7       29.89F
GWINNER          N/A     77  55  47 SW9       29.98F
SHEYENNE NWR     N/A     78  58  49 S7        29.95S
ROLLA            N/A     75  61  60 W5        29.96S
 ***** THE ABOVE OBSERVATIONS ARE NON NWS ARE NOT QUALITY
       CONTROLLED AND MAY MIS-REPORT RAIN FOR SNOW...
$$

  *****  WEATHER ACROSS NORTHERN MINNESOTA  *****

CITY           SKY/WX    TMP DP  RH WIND       PRES   REMARKS
FLAG ISLAND    MOSUNNY   73  57  56 SW12      29.90F
WARROAD        MOSUNNY   73  61  64 SW8G17    29.94S
ROSEAU         SUNNY     73  63  68 SW10      29.93F
HALLOCK        PTSUNNY   75  64  69 S9        29.90F
THF RVR FALLS  SUNNY     75  55  50 SW13      29.96F
BAUDETTE       MOSUNNY   75  52  44 SW12      29.94F
WASKISH        MOSUNNY   73  61  64 SW12      29.97
CROOKSTON      MOSUNNY   77  57  50 SW16      29.95F
$$
  *****  WEATHER ACROSS CENTRAL AND WEST MINNESOTA  *****

CITY           SKY/WX    TMP DP  RH WIND       PRES   REMARKS
FOSSTON        SUNNY     73  55  53 S14       29.99S
BEMIDJI        MOSUNNY   74  57  56 SW7       29.99S
PARK RAPIDS    MOSUNNY   77  55  46 S13G18    30.00F
ELBOW LAKE     FAIR      73  52  48 S7        30.00F
WADENA         MOSUNNY   73  54  49 SW12      30.00F
DETROIT LAKES  SUNNY     73  54  49 S8        30.01F
MOORHEAD       SUNNY     75  54  46 SW9       29.98S
FERGUS FALLS   SUNNY     73  54  49 S12       29.98F
MORRIS MN      MOSUNNY   75  46  35 S8        30.00S
STAPLES        SUNNY     73  54  49 S7        30.01S
$$
  *****  WEATHER ELSEWHERE ACROSS MINNESOTA  *****

CITY           SKY/WX    TMP DP  RH WIND       PRES   REMARKS
DULUTH         PTSUNNY   74  57  55 W9        30.00F
INTRNTL FALLS  MOSUNNY   76  54  46 W9G17     29.94F
ELY            MOSUNNY   75  57  53 SW9       29.97S
CLOQUET        PTSUNNY   73  54  49 SW3       30.00F
WHEATON        MOSUNNY   72  52  49 SE7       30.00F
BRAINERD       MOSUNNY   77  53  43 SE8       30.00F
HIBBING        SUNNY     76  56  49 W7        29.99F
ALEXANDRIA     MOSUNNY   72  53  51 S9        30.03S
SAINT CLOUD    PTSUNNY   76  54  46 VRB7      30.01S
MINNEAPOLIS    MOSUNNY   76  52  43 SE6       30.01S
$$

  *****  WEATHER ACROSS SOUTH DAKOTA  *****

CITY           SKY/WX    TMP DP  RH WIND       PRES   REMARKS
SIOUX FALLS    CLOUDY    70  57  63 SE6       30.00R
BROOKINGS      CLOUDY    70  46  43 CALM      30.03R
WATERTOWN      CLOUDY    71  49  45 VRB5      30.00F
HURON          CLOUDY    66  60  81 N3        29.99S
SISSETON         N/A     75  51  43 S8        29.97F
ABERDEEN       PTSUNNY   69  62  78 SE8       29.98F
MITCHELL       CLOUDY    70  62  76 E10       29.99R
PIERRE         MOSUNNY   77  64  64 N9        29.97F
MOBRIDGE       MOSUNNY   76  65  68 N6        29.96F
RAPID CITY     MOSUNNY   78  58  49 N13G24    30.08S
$$

  *****  SOME WEATHER IN NEARBY STATES *****

CITY           SKY/WX    TMP DP  RH WIND       PRES   REMARKS
GLASGOW MT     MOSUNNY   79  57  46 NW9       30.08F
GREAT FALLS MT SUNNY     82  50  32 NE8       30.15F
CHEYENNE WY    MOSUNNY   78  50  37 N7        30.24F
SCOTTSBLUFF NE PTSUNNY   84  53  34 N13       30.12S
OMAHA NE       CLOUDY    69  65  86 SE12      29.95F
DES MOINES IA  CLOUDY    68  49  50 E7        29.99S
DAVENPORT IA   MOSUNNY   72  53  51 E13       29.99S
CHICAGO IL     PTSUNNY   67  53  61 NE14      29.99F
EAU CLAIRE WI  SUNNY     75  50  41 SE8       30.01F
LA CROSSE WI   SUNNY     76  53  44 N6        30.01S
$$

  *****  SOME NATIONAL WEATHER *****

CITY           SKY/WX    TMP DP  RH WIND       PRES   REMARKS
LA GUARDIA NY  CLOUDY    76  57  51 S10       29.88S
RALEIGH NC     PTSUNNY   85  69  58 W13       29.89F
ATLANTA GA     PTSUNNY   85  71  63 W15       29.98F HX  90
NEW ORLEANS LA CLOUDY    90  74  59 SW9       30.05F HX  99
OKLAHOMA CITY  PTSUNNY   89  72  56 SW13      29.89F HX  96
ALBUQUERQUE NM MOSUNNY   91  47  21 CALM      30.08F
SALT LAKE CITY MOSUNNY   95  48  20 NW8       30.05F HX  91
LOS ANGELES CA MOSUNNY   75  63  66 W9        29.99F
BOISE ID       SUNNY     97  44  16 W14       29.98F HX  93
SEATTLE WA     SUNNY     86  53  32 NW10G18   30.03S
$$

*** WEATHER ACROSS MANITOBA...SASKATCHEWAN AND ONTARIO ***
                ***ONTARIO***

CITY           SKY/WX    TMP DP  RH WIND       PRES   REMARKS
GERALDTON      PTSUNNY   75  50  41 W6        29.90F
THUNDER BAY    CLOUDY    66  57  72 NE9       29.93S THUNDER
SIOUX LOOKOUT  TSTM      61  59  94 SE3       29.89F
TORONTO        MOSUNNY   70  46  43 N12G18    29.96F
BIG TROUT LK   MOSUNNY   79  50  36 S3        29.73F
PICKLE LAKE    LGT RAIN  63  59  88 W7        29.87F
DRYDEN         MOSUNNY   73  55  53 W17G28    29.89F
KENORA         PTSUNNY   73  61  64 SW13      29.90F
$$
                *** MANITOBA***

CITY           SKY/WX    TMP DP  RH WIND       PRES   REMARKS
BRANDON        CLOUDY    73  68  83 NW9       29.92F SMOKE
DAUPHIN        MOSUNNY   77  66  69 W3        29.91F HAZE
ISLAND LAKE    CLOUDY    77  55  47 W7        29.74F
PILOT MOUND      N/A    N/A N/A N/A W8          N/A
THE PAS        CLOUDY    79  54  41 NW15G25   29.86S SMOKE
THOMPSON       PTSUNNY   75  55  50 NW15      29.76S
WINNIPEG       CLOUDY    75  66  73 W7        29.88F
LYNN LAKE      MOSUNNY   73  48  40 N13G25    29.86R
CHURCHILL      PTSUNNY   55  50  82 N17       29.72R
GILLAM         CLOUDY    70  59  68 NW10      29.67S
$$
                ***SASKATCHEWAN***

CITY           SKY/WX    TMP DP  RH WIND       PRES   REMARKS
ESTEVAN        CLOUDY    77  63  61 NW10      30.01F SMOKE
KINDERSLEY     MOSUNNY   79  57  47 NW8       30.08F
LLOYDMINSTER   PTSUNNY   81  52  36 W9        30.05F
PRINCE ALBERT  PTSUNNY   82  61  47 NW9       29.97F SMOKE
REGINA         CLOUDY    77  63  61 NW13G20   30.03S SMOKE
YORKTON        CLOUDY    73  61  64 NW10      29.97F HAZE
N. BATTLEFORD  SUNNY     79  55  44 NW8       30.06F
LA RONGE       SMOKE     79  55  44 NW9       29.93F VSB 3/4
SASKATOON      PTSUNNY   79  59  50 N9        30.03F SMOKE
SWIFT CURRENT  MOSUNNY   75  57  53 NW10      30.09F
$$
NOTE: THESE ARE AUTOMATED STATIONS WITH LIMITED QUALITY CONTROL
      "FAIR" INDICATES FEW OR NO CLOUDS BELOW 12,000 FEET WITH NO
      SIGNIFICANT WEATHER AND/OR OBSTRUCTIONS TO VISIBILITY.
      SKY/WX - SKY CONDITION AND SIGNIFICANT WEATHER.
      TMP - AIR TEMPERATURE.    DP   - DEWPOINT TEMPERATURE.
      RH  - RELATIVE HUMIDITY.  PRES - PRESSURE.
      HX  - HEAT INDEX.         WCI  - WIND CHILL INDEX.
$


USA.gov is the U.S. government's official web portal to all federal, state and local government web resources and services.